Estación Meteorológica Peña el Pijo (Robertgarden) [ 07/12/20 07:29:28 CEST ]

Fecha Hora Presion(HPa) Temp (°C) Humedad % Rocio (°C) Viento ( m/s) Direccion Lluvia 1Hora(mm) Lluvia 24H(mm) LLuvia Total(mm)
2019-Dec-20 01:09:26 997.000 - - - - S     39.88
2019-Dec-20 02:10:49 996.400 - - - - S     39.88
2019-Dec-20 03:10:59 996.000 - - - - S     39.88
2019-Dec-20 04:09:33 995.300 - - - - S     39.88
2019-Dec-20 05:09:28 994.700 - - - - S     39.88
2019-Dec-20 06:39:36 994.900 - - - - S     39.88
2019-Dec-20 07:09:06 995.600 - - - - S     39.88
2019-Dec-20 08:09:20 997.000 - - - - S     39.88
2019-Dec-20 09:09:17 996.500 - - - - S     39.88
2019-Dec-20 10:08:57 997.300 - - - - S     39.88
2019-Dec-20 11:09:18 998.500 - - - - S     39.88
2019-Dec-20 12:09:13 998.900 - - - - S     39.88
2019-Dec-20 13:09:34 997.500 - - - - S     39.88
2019-Dec-20 14:08:49 996.600 - - - - S     39.88
2019-Dec-20 15:09:15 996.200 - - - - S     39.88
2019-Dec-20 16:09:10 995.500 - - - - S     39.88
2019-Dec-20 17:09:07 995.000 - - - - S     39.88
2019-Dec-20 18:09:09 995.200 - - - - S     39.88
2019-Dec-20 19:09:10 995.900 - - - - S     39.88
2019-Dec-20 20:09:29 995.300 - - - - S     39.88
2019-Dec-20 21:08:55 994.700 - - - - S     39.88
2019-Dec-20 22:08:49 994.900 - - - - S     39.88
2019-Dec-20 23:09:31 995.400 - - - - S     39.88

Temperatura Máxima:    Temperatura Mínima:
Presión Máxima:998.900 Hpa    Presión Mínima:994.700 Hpa


Volver